Home > Weather > Mersin > Past weeks

Flag for Turkey Past Weather in Mersin, Turkey — Yesterday and Last 2 Weeks

Now
79 °F

Clear.


Feels Like: 83 °F
Forecast: 70 / 94 °F
Wind: No wind

Location: Adana / Sakirpasa

Current Time: Jul 29, 2016 at 3:25:03 AM

Latest Report: Jul 29, 2016 at 2:50 AM


Visibility: 10 mi

Pressure: 29.65 "Hg

Humidity: 94%

Dew Point: 77 °F

Location of MersinLocation

Past Weather in Mersin — Graph

°F

Mersin Temperature Yesterday

Maximum temperature yesterday: 95 °F (at 12:50 PM)
Minimum temperature yesterday: 77 °F (at 3:50 AM)
Average temperature yesterday: 85 °F

High & Low Weather Summary for the Past Weeks

 TemperatureHumidityPressure
High97 °F (Jul 24, 1:20 PM)100% (Jul 25, 2:20 AM)29.83 "Hg (Jul 25, 2:20 AM)
Low75 °F (Jul 14, 5:50 AM)27% (Jul 25, 12:20 PM)29.53 "Hg (Jul 24, 3:20 PM)
Average84 °F73%29.68 "Hg
* Reported Jul 14 1:20 AM — Jul 29 1:50 AM, Mersin, Weather by CustomWeather, © 2016

Note: Actual official high and low records may vary slightly from our data, if they occured in-between our weather recording intervals... More about our weather records

Advertising

Mersin Weather History for the Previous 24 Hours

Scroll right to see more
 ConditionsComfort  
Time TempWeatherWind HumidityBarometerVisibility
1:50 AM
Fri, Jul 29
79 °FClear.3 mph94%29.65 "Hg10 mi
1:20 AM81 °FClear.3 mph89%29.68 "Hg10 mi
12:50 AM81 °FClear.3 mph89%29.68 "Hg10 mi
12:20 AM81 °FPassing clouds.3 mph89%29.68 "HgN/A
11:50 PM
Thu, Jul 28
81 °FClear.5 mph89%29.68 "Hg10 mi
11:20 PM81 °FClear.5 mph89%29.68 "Hg10 mi
10:50 PM82 °FPassing clouds.6 mph84%29.68 "HgN/A
10:20 PM82 °FPassing clouds.5 mph84%29.68 "HgN/A
9:50 PM82 °FClear.5 mph84%29.68 "Hg10 mi
9:20 PM82 °FClear.3 mph84%29.68 "Hg10 mi
8:50 PM82 °FClear.5 mph84%29.65 "Hg10 mi
8:20 PM82 °FSunny.5 mph84%29.65 "Hg10 mi
7:50 PM84 °FSunny.5 mph79%29.65 "Hg10 mi
7:20 PM86 °FSunny.8 mph75%29.65 "Hg10 mi
6:50 PM88 °FSunny.12 mph66%29.62 "Hg10 mi
6:20 PM90 °FSunny.12 mph55%29.62 "Hg10 mi
5:50 PM91 °FSunny.14 mph52%29.62 "Hg10 mi
5:20 PM91 °FSunny.14 mph52%29.62 "Hg10 mi
4:50 PM93 °FSunny.15 mph49%29.62 "Hg10 mi
4:20 PM93 °FSunny.14 mph49%29.62 "Hg10 mi
3:50 PM95 °FPassing clouds.13 mph47%29.62 "HgN/A
3:20 PM93 °FPassing clouds.14 mph53%29.65 "HgN/A
2:50 PM95 °FSunny.14 mph50%29.65 "Hg10 mi
2:20 PM95 °FPassing clouds.13 mph53%29.65 "HgN/A
1:50 PM93 °FPassing clouds.14 mph56%29.65 "HgN/A
1:20 PM95 °FScattered clouds.9 mph50%29.65 "HgN/A
12:50 PM95 °FScattered clouds.8 mph50%29.65 "HgN/A
12:20 PM93 °FScattered clouds.8 mph49%29.65 "HgN/A
11:50 AM93 °FScattered clouds.7 mph53%29.68 "HgN/A
11:20 AM91 °FScattered clouds.7 mph52%29.68 "HgN/A
10:50 AM91 °FScattered clouds.5 mph56%29.68 "HgN/A
10:20 AM88 °FScattered clouds.6 mph62%29.68 "HgN/A
9:50 AM88 °FScattered clouds.5 mph62%29.68 "HgN/A
9:20 AM86 °FScattered clouds.5 mph70%29.68 "HgN/A
8:50 AM86 °FScattered clouds.2 mph66%29.68 "HgN/A
8:20 AM84 °FScattered clouds.2 mph74%29.71 "HgN/A
7:50 AM82 °FScattered clouds.2 mph84%29.71 "Hg4 mi
7:20 AM79 °FScattered clouds.3 mph89%29.68 "Hg4 mi
6:50 AM77 °FScattered clouds.1 mph94%29.68 "HgN/A
6:20 AM77 °FPassing clouds.3 mph94%29.68 "HgN/A
5:50 AM77 °FPassing clouds.2 mph89%29.68 "HgN/A
5:20 AM77 °FPassing clouds.1 mph89%29.68 "HgN/A
4:50 AM77 °FPassing clouds.No wind94%29.68 "HgN/A
4:20 AM79 °FPassing clouds.2 mph89%29.68 "HgN/A
3:50 AM77 °FPassing clouds.2 mph94%29.68 "HgN/A
3:20 AM79 °FPassing clouds.3 mph89%29.68 "HgN/A
Weather by CustomWeather, © 2016

See weather overviewHow to use our weather pages